Regional Weather Roundup
Issued by NWS Boston, MA

Home | Current Version | Previous Version | Text Only | Print | Product List | Glossary On
Versions: 1 2 3 4 5 6 7 8 9 10 11 12 13 14 15 16 17 18 19 20 21 22 23 24 25 26 27 28 29 30 31 32 33 34 35 36 37 38 39 40 41 42 43 44 45 46 47 48 49 50
000
ASUS41 KBOX 230610
RWRBOX

REGIONAL WEATHER ROUNDUP
NATIONAL WEATHER SERVICE TAUNTON MA
200 AM EDT SAT MAY 23 2015

NOTE:  "FAIR" INDICATES FEW OR NO CLOUDS BELOW 12,000 FEET WITH NO
SIGNIFICANT WEATHER AND/OR OBSTRUCTIONS TO VISIBILITY.  THE FOLLOWING
OBSERVATION LOCATIONS DO NOT REPORT PRESENT WEATHER...PROVINCETOWN...
SMITHFIELD...BLOCK ISLAND...KEENE...AND OXFORD.

MAZALL-230700-
EASTERN MASSACHUSETTS

CITY           SKY/WX    TMP DP  RH WIND       PRES   REMARKS
BOSTON         CLEAR     51  32  48 NW17G28   30.12R
6HR MIN TEMP:  51; 6HR MAX TEMP:  66;

BEVERLY        CLEAR     50  31  48 NW12G24   30.11R
LAWRENCE       CLEAR     48  33  56 NW9G20    30.14R
BEDFORD        CLEAR     48  32  53 NW13      30.12R
BLUE HILL        N/A     49  28  44 NW13G23   30.08R
NORWOOD        CLEAR     52  26  36 NW13G21   30.11R
MARSHFIELD     CLEAR     54  27  35 NW7       30.10R
PLYMOUTH       CLEAR     53  24  32 NW12      30.09R
TAUNTON        CLEAR     54  25  32 NW8       30.09R
NEW BEDFORD    CLEAR     52  28  39 W7        30.09R
$$

MAZALL-230700-
CAPE COD AND THE ISLANDS

CITY           SKY/WX    TMP DP  RH WIND       PRES   REMARKS
FALMOUTH       MOCLDY    52  25  35 NW8       30.09R
HYANNIS        PTCLDY    54  25  32 W7        30.07R
CHATHAM        PTCLDY    54  30  40 VRB6      30.08R
PROVINCETOWN   PTCLDY    54  39  58 NW9       30.08R
NANTUCKET      MOCLDY    58  31  35 NW15G24   30.09R
MARTHAS VNYRD  MOCLDY    55  29  36 W9        30.10R
$$

MAZALL-230700-
CENTRAL AND WESTERN MASSACHUSETTS

CITY           SKY/WX    TMP DP  RH WIND       PRES   REMARKS
WORCESTER      CLEAR     47  29  49 NW13      30.12R
6HR MIN TEMP:  47; 6HR MAX TEMP:  59;

FITCHBURG      CLEAR     46  31  55 N12       30.15R
ORANGE         PTCLDY    45  33  63 N9        30.16R
SPRINGFIELD    CLEAR     47  30  51 NW9       30.15R
WESTFIELD      CLEAR     48  30  49 NW7       30.16R
NORTH ADAMS    CLOUDY    43  28  55 W5        30.19R
PITTSFIELD     PTCLDY    40  28  62 NW8       30.16R
$$

RIZALL-230700-
RHODE ISLAND

CITY           SKY/WX    TMP DP  RH WIND       PRES   REMARKS
PROVIDENCE     CLEAR     54  24  31 NW12      30.11R
6HR MIN TEMP:  54; 6HR MAX TEMP:  65;

NEWPORT        CLEAR     52  30  43 NW7       30.11R
BLOCK ISLAND   PTCLDY    54  32  43 NW8       30.14R
SMITHFIELD     CLEAR     50  21  32 NW14      30.10R
WESTERLY       CLEAR     53  29  39 VRB5      30.14R
$$

CTZALL-230700-
CONNECTICUT

CITY           SKY/WX    TMP DP  RH WIND       PRES   REMARKS
BRADLEY INTL   CLEAR     51  24  34 NW14      30.15R
6HR MIN TEMP:  51; 6HR MAX TEMP:  63;

HARTFORD       CLEAR     53  22  29 NW13G23   30.17R
BRIDGEPORT     CLEAR     55  33  43 NW9       30.17R
DANBURY        CLEAR     51  26  37 W7        30.19R
GROTON         CLEAR     53  29  39 NW10      30.14R
NEW HAVEN      CLEAR     52  33  48 NW6       30.17R
CHESTER        FAIR      52  32  46 NW8       30.16R
MERIDEN        CLEAR     43  35  73 CALM      30.17R
WILLIMANTIC    CLEAR     52  28  39 NW6       30.14R
OXFORD         CLEAR     46  28  49 NW7       30.18R
$$

MEZ002-015-021-024-NHZ003-005-008-011-012-014-VTZ005-008-230700-
NORTHERN NEW ENGLAND

CITY           SKY/WX    TMP DP  RH WIND       PRES   REMARKS
PORTLAND ME    CLOUDY    48  33  56 NW16G24   30.08R
6HR MIN TEMP:  47; 6HR MAX TEMP:  59;

BANGOR ME      CLOUDY    43  35  73 NW10      29.99R
CONCORD NH     PTCLDY    45  29  53 NW14      30.14R
MANCHESTER NH  PTCLDY    47  30  51 NW10      30.12R
NASHUA NH      CLEAR     47  31  54 NW15G22   30.14R
PORTSMOUTH NH  CLOUDY    49  29  47 NW14G24   30.09R
JAFFREY NH     MOCLDY    42  30  62 VRB5      30.15R
KEENE NH       MOCLDY    45  28  53 N18       30.17R
BURLINGTON VT  CLEAR     41  19  41 NW12      30.20R
MT. WASHINGTON DRFTSNOW  10  10 100 NW51G62     N/A  VSB 1/16WCI -16
$$

NYZ052-076-230700-
EASTERN NEW YORK

CITY           SKY/WX    TMP DP  RH WIND       PRES   REMARKS
ALBANY         MOCLDY    45  28  51 NW10      30.24R
6HR MIN TEMP:  45; 6HR MAX TEMP:  57;

NEW YORK CITY  CLEAR     57  31  37 NW22G33   30.21R
6HR MIN TEMP:  57; 6HR MAX TEMP:  69;

$$

ANZALL-230700-
MARINE OBSERVATIONS

STATION/POSITION TIME  TEMP    WIND        PRES    VSBY  WAVE
                       AIR SEA DIR/SP/G                  HT/PER
                 (UTC) (F)     (DEG/KT/KT) (MB)    (MI)  (FT/S)
BOSTON BUOY      0550   53 53  330/ 19/ 21   N/A           1/ 3
BUZZARDS BAY     0500          310/ 16/ 18   N/A
NANTUCKET SOUND  0550   58 56  300/ 16/ 21   N/A           2/ 3
MASS BAY-STELLWA 0504   53 53  300/ 12/ 14   N/A    1 7/8  1/ 4
ISLE OF SHOALS   0500   50     300/ 16/ 17   N/A
S OF BLOCK IS    0508      53                N/A           3/ 5
$$

......................KEY.........................
  SKY/WX - SKY CONDITION/PRESENT WEATHER
  TMP    - TEMPERATURE IN FAHRENHEIT
  DWPT   - DEWPOINT IN FAHRENHEIT
  RH     - RELATIVE HUMIDITY IN PERCENT
  WIND   - DIRECTION AND SPEED IN MPH
  PRES   - MEAN SEA LEVEL PRESSURE IN INCHES OF HG
  WCI    - WIND CHILL INDEX
  VSB    - VISIBILITY IN MILES
  HX     - HEAT INDEX
  TC     - TEMPERATURE IN CELSIUS
  VRB    - VARIABLE WIND DIRECTION
  N/A    - NOT AVAILABLE


USA.gov is the U.S. government's official web portal to all federal, state and local government web resources and services.